Tiempo cada hora Dadri

Hoy, 29 Noviembre, Domingo

Tiempo Temperatura Precipitaciones Viento Presión Humedad
00:00 +19°C° 0 mm 1 mps 744 mmHg 31%
01:00 +19°C° 0 mm 1 mps 744 mmHg 32%
02:00 +19°C° 0 mm 1 mps 744 mmHg 32%
03:00 +18°C° 0 mm 1 mps 744 mmHg 33%
04:00 +18°C° 0 mm 1 mps 744 mmHg 34%
05:00 +18°C° 0 mm 1 mps 744 mmHg 34%
06:00 +18°C° 0 mm 1 mps 745 mmHg 33%
07:00 +19°C° 0 mm 1 mps 745 mmHg 31%
08:00 +20°C° 0 mm 1 mps 746 mmHg 30%
09:00 +22°C° 0 mm 1 mps 746 mmHg 26%
10:00 +24°C° 0 mm 1 mps 746 mmHg 22%
11:00 +26°C° 0 mm 1 mps 746 mmHg 18%
12:00 +26°C° 0 mm 2 mps 745 mmHg 16%
13:00 +27°C° 0 mm 2 mps 744 mmHg 15%
14:00 +28°C° 0 mm 2 mps 744 mmHg 13%
15:00 +27°C° 0 mm 2 mps 743 mmHg 15%
16:00 +25°C° 0 mm 1 mps 743 mmHg 16%
17:00 +24°C° 0 mm 1 mps 743 mmHg 17%
18:00 +23°C° 0 mm 1 mps 743 mmHg 18%
19:00 +22°C° 0 mm 1 mps 743 mmHg 19%
20:00 +21°C° 0 mm 1 mps 744 mmHg 20%
21:00 +19°C° 0 mm 0 mps 744 mmHg 21%
22:00 +18°C° 0 mm 0 mps 744 mmHg 22%
23:00 +18°C° 0 mm 0 mps 743 mmHg 23%

Mañana, 30 Noviembre, Lunes

Tiempo Temperatura Precipitaciones Viento Presión Humedad
00:00 +17°C° 0 mm 0 mps 743 mmHg 23%
01:00 +17°C° 0 mm 0 mps 743 mmHg 24%
02:00 +17°C° 0 mm 0 mps 743 mmHg 24%
03:00 +16°C° 0 mm 0 mps 743 mmHg 24%
04:00 +16°C° 0 mm 0 mps 743 mmHg 25%
05:00 +16°C° 0 mm 0 mps 743 mmHg 25%
06:00 +17°C° 0 mm 0 mps 743 mmHg 24%
07:00 +17°C° 0 mm 0 mps 744 mmHg 24%
08:00 +18°C° 0 mm 0 mps 744 mmHg 23%
09:00 +20°C° 0 mm 0 mps 744 mmHg 20%
10:00 +24°C° 0 mm 1 mps 744 mmHg 18%
11:00 +26°C° 0 mm 1 mps 744 mmHg 15%
12:00 +27°C° 0 mm 1 mps 743 mmHg 14%
13:00 +28°C° 0 mm 2 mps 743 mmHg 13%
14:00 +29°C° 0 mm 2 mps 742 mmHg 12%
15:00 +27°C° 0 mm 1 mps 742 mmHg 13%
16:00 +26°C° 0 mm 1 mps 742 mmHg 14%
17:00 +24°C° 0 mm 1 mps 742 mmHg 15%
18:00 +22°C° 0 mm 0 mps 742 mmHg 16%
19:00 +21°C° 0 mm 0 mps 743 mmHg 16%
20:00 +20°C° 0 mm 0 mps 743 mmHg 17%
21:00 +20°C° 0 mm 0 mps 743 mmHg 18%
22:00 +19°C° 0 mm 0 mps 743 mmHg 18%
23:00 +19°C° 0 mm 0 mps 743 mmHg 19%

Pasado mañana, 1 Diciembre, Martes

Tiempo Temperatura Precipitaciones Viento Presión Humedad
00:00 +18°C° 0 mm 0 mps 743 mmHg 20%
01:00 +18°C° 0 mm 0 mps 743 mmHg 21%
02:00 +17°C° 0 mm 0 mps 743 mmHg 21%
03:00 +17°C° 0 mm 0 mps 743 mmHg 22%
04:00 +17°C° 0 mm 0 mps 743 mmHg 23%
05:00 +16°C° 0 mm 0 mps 743 mmHg 23%
06:00 +17°C° 0 mm 0 mps 744 mmHg 23%
07:00 +18°C° 0 mm 0 mps 744 mmHg 22%
08:00 +19°C° 0 mm 0 mps 745 mmHg 22%
09:00 +21°C° 0 mm 0 mps 745 mmHg 20%
10:00 +23°C° 0 mm 0 mps 745 mmHg 17%
11:00 +25°C° 0 mm 0 mps 745 mmHg 15%
12:00 +28°C° 0 mm 1 mps 744 mmHg 14%
13:00 +28°C° 0 mm 1 mps 743 mmHg 13%
14:00 +29°C° 0 mm 2 mps 743 mmHg 13%
15:00 +28°C° 0 mm 2 mps 742 mmHg 14%
16:00 +26°C° 0 mm 1 mps 742 mmHg 16%
17:00 +25°C° 0 mm 1 mps 742 mmHg 17%
18:00 +24°C° 0 mm 1 mps 742 mmHg 18%
19:00 +23°C° 0 mm 1 mps 743 mmHg 19%
20:00 +23°C° 0 mm 1 mps 743 mmHg 20%
21:00 +22°C° 0 mm 1 mps 743 mmHg 21%
22:00 +22°C° 0 mm 1 mps 743 mmHg 23%
23:00 +21°C° 0 mm 1 mps 743 mmHg 24%

2 Diciembre, Miércoles

Tiempo Temperatura Precipitaciones Viento Presión Humedad
00:00 +21°C° 0 mm 1 mps 743 mmHg 24%
01:00 +20°C° 0 mm 1 mps 742 mmHg 25%
02:00 +20°C° 0 mm 1 mps 742 mmHg 26%
03:00 +20°C° 0 mm 1 mps 742 mmHg 26%
04:00 +19°C° 0 mm 1 mps 742 mmHg 26%
05:00 +19°C° 0 mm 1 mps 742 mmHg 26%
06:00 +20°C° 0 mm 1 mps 743 mmHg 26%
07:00 +20°C° 0 mm 1 mps 743 mmHg 25%
08:00 +21°C° 0 mm 1 mps 744 mmHg 25%
09:00 +23°C° 0 mm 1 mps 744 mmHg 22%
10:00 +25°C° 0 mm 2 mps 744 mmHg 19%
11:00 +27°C° 0 mm 3 mps 744 mmHg 16%
12:00 +28°C° 0 mm 3 mps 743 mmHg 15%
13:00 +29°C° 0 mm 3 mps 742 mmHg 14%
14:00 +30°C° 0 mm 4 mps 741 mmHg 14%
15:00 +28°C° 0 mm 3 mps 741 mmHg 15%
16:00 +27°C° 0 mm 3 mps 740 mmHg 17%
17:00 +26°C° 0 mm 2 mps 740 mmHg 18%
18:00 +25°C° 0 mm 2 mps 740 mmHg 19%
19:00 +24°C° 0 mm 2 mps 740 mmHg 20%
20:00 +23°C° 0 mm 1 mps 741 mmHg 21%
21:00 +22°C° 0 mm 1 mps 741 mmHg 21%
22:00 +22°C° 0 mm 1 mps 741 mmHg 22%
23:00 +21°C° 0 mm 1 mps 741 mmHg 23%

3 Diciembre, Jueves

Tiempo Temperatura Precipitaciones Viento Presión Humedad
00:00 +21°C° 0 mm 1 mps 741 mmHg 23%
01:00 +20°C° 0 mm 1 mps 740 mmHg 24%
02:00 +20°C° 0 mm 1 mps 740 mmHg 24%
03:00 +20°C° 0 mm 1 mps 740 mmHg 25%
04:00 +19°C° 0 mm 1 mps 740 mmHg 25%
05:00 +17°C° 0 mm 0 mps 740 mmHg 26%
06:00 +17°C° 0 mm 0 mps 741 mmHg 25%
07:00 +18°C° 0 mm 0 mps 742 mmHg 24%
08:00 +19°C° 0 mm 0 mps 742 mmHg 24%
09:00 +21°C° 0 mm 0 mps 743 mmHg 21%
10:00 +23°C° 0 mm 0 mps 743 mmHg 19%
11:00 +27°C° 0 mm 1 mps 743 mmHg 16%
12:00 +28°C° 0 mm 1 mps 742 mmHg 15%
13:00 +29°C° 0 mm 1 mps 741 mmHg 14%
14:00 +29°C° 0 mm 2 mps 741 mmHg 13%
15:00 +28°C° 0 mm 1 mps 741 mmHg 14%
16:00 +26°C° 0 mm 1 mps 741 mmHg 15%
17:00 +25°C° 0 mm 1 mps 741 mmHg 17%
18:00 +24°C° 0 mm 1 mps 741 mmHg 17%
19:00 +24°C° 0 mm 1 mps 741 mmHg 18%
20:00 +23°C° 0 mm 1 mps 741 mmHg 19%
21:00 +22°C° 0 mm 1 mps 741 mmHg 21%
22:00 +21°C° 0 mm 1 mps 742 mmHg 24%
23:00 +21°C° 0 mm 1 mps 742 mmHg 26%

4 Diciembre, Viernes

Tiempo Temperatura Precipitaciones Viento Presión Humedad
00:00 +20°C° 0 mm 1 mps 741 mmHg 27%
01:00 +19°C° 0 mm 1 mps 741 mmHg 29%
02:00 +19°C° 0 mm 1 mps 741 mmHg 31%
03:00 +18°C° 0 mm 1 mps 741 mmHg 31%
04:00 +18°C° 0 mm 1 mps 741 mmHg 32%
05:00 +18°C° 0 mm 1 mps 741 mmHg 32%
06:00 +18°C° 0 mm 1 mps 742 mmHg 32%
07:00 +19°C° 0 mm 1 mps 742 mmHg 32%
08:00 +20°C° 0 mm 1 mps 743 mmHg 31%
09:00 +22°C° 0 mm 1 mps 743 mmHg 28%
10:00 +24°C° 0 mm 2 mps 743 mmHg 24%
11:00 +26°C° 0 mm 2 mps 743 mmHg 20%
12:00 +27°C° 0 mm 1 mps 742 mmHg 19%
13:00 +28°C° 0 mm 1 mps 742 mmHg 17%
14:00 +29°C° 0 mm 1 mps 741 mmHg 16%
15:00 +26°C° 0 mm 0 mps 741 mmHg 18%
16:00 +24°C° 0 mm 0 mps 741 mmHg 19%
17:00 +23°C° 0 mm 0 mps 741 mmHg 21%
18:00 +24°C° 0 mm 1 mps 741 mmHg 22%
19:00 +23°C° 0 mm 1 mps 741 mmHg 24%
20:00 +21°C° 0 mm 2 mps 742 mmHg 25%
21:00 +22°C° 0 mm 1 mps 742 mmHg 27%
22:00 +21°C° 0 mm 1 mps 742 mmHg 28%
23:00 +21°C° 0 mm 1 mps 742 mmHg 30%
Mostrar más

Necesitamos Su Consentimiento

Meteoprog y nuestros Proveedores de Servicios pueden almacenar y acceder a sus datos personales como cookies, identificadores de dispositivo u otras tecnologías similares de su dispositivo y procesar dichos datos para personalizar contenido y anuncios, además de ofrecer funciones de redes sociales y analizar el tráfico.

  • Almacenar y/o acceder a información en su dispositivo

    Se puede almacenar o acceder a cookies, identificadores de dispositivo u otra información de su dispositivo para los fines anteriormente indicados.

  • Anuncios y contenido personalizados, medición de anuncios y contenido, percepciones del público, y desarrollo de productos

    Los anuncios y el contenido pueden personalizarse en base a su perfil. Se pueden añadir más datos para personalizar mejor los anuncios y contenidos. Se puede medir el rendimiento de los anuncios y contenidos. Se puede obtener la percepción sobre el público que ha visto los anuncios y contenidos. Dichos datos pueden usarse para desarrollar o mejorar la experiencia del usuario, sistemas y software.

Al hacer clic en ‘Estoy De Acuerdo’ usted permitirá el uso de las cookies, identificadores de dispositivo, balizas web u otras tecnologías similares indicadas. Su configuración puede cambiarse desde el navegador de su dispositivo.

Para ciertos fines, los intereses legítimos pueden ser considerados por encima del consentimiento. Puede leer más sobre ello en nuestra Política de Privacidad y Cookies.